Theta_e
343 345 348 349 349 348 347 347 347 347 347 348 348 348 348 348 347 346 346 345 344 344 341 341 341 339 339 339 339 339 340 339 338 338 337 337 338 337 337 338 339 335 340
342 345 347 348 348 348 347 347 347 348 349 349 348 347 346 346 345 345 344 343 343 343 341 341 340 339 339 338 337 337 336 338 338 339 338 337 335 334 335 335 339 335 337
344 345 347 347 348 347 347 347 347 348 349 348 347 346 346 345 344 343 342 341 343 343 341 340 339 339 338 336 337 335 333 333 334 334 333 325 328 335 336 336 337 335 335
334 343 345 346 346 345 345 345 346 347 348 348 347 346 345 344 343 342 340 340 342 342 340 339 338 337 337 338 336 333 332 330 329 328 321 323 327 333 334 334 333 332 332
330 329 343 345 344 344 342 342 341 343 346 346 346 345 344 344 343 341 339 339 341 341 338 335 332 334 335 337 334 332 330 329 327 322 317 319 322 329 331 331 330 330 329
332 329 333 340 341 341 341 342 343 342 344 345 344 344 344 344 342 340 338 338 340 339 334 330 332 335 334 333 332 329 328 326 323 315 316 323 321 328 330 328 327 327 325
330 333 334 332 330 330 331 338 343 341 343 344 344 343 343 342 341 339 337 336 337 336 331 331 335 334 333 331 330 328 327 324 317 314 316 316 320 327 328 326 325 324 324
331 333 330 330 328 329 328 332 338 337 342 343 342 341 341 340 339 337 336 334 333 332 330 331 333 333 331 330 328 327 326 324 317 314 315 317 324 327 327 325 324 322 322
328 328 327 326 327 327 328 328 336 334 339 340 340 339 339 337 336 335 334 332 331 329 329 328 329 332 330 329 328 326 324 323 314 315 317 317 325 326 326 324 323 322 321
328 326 325 326 324 324 324 327 331 332 338 338 338 337 336 335 334 333 331 330 328 327 328 327 327 328 330 327 326 325 323 321 312 313 314 319 325 326 325 324 322 321 320
325 327 325 324 323 324 324 325 324 326 337 336 337 335 331 329 327 324 327 328 327 327 326 325 324 328 327 326 325 324 319 313 313 314 315 325 324 325 324 322 321 320 319
321 323 324 323 323 323 325 324 321 324 329 332 331 330 327 324 323 324 327 327 326 325 325 325 321 321 321 318 320 318 312 312 313 314 316 325 323 324 323 321 320 319 318
322 322 322 323 323 323 321 322 323 325 327 327 327 326 324 324 324 322 319 317 316 316 312 312 308 306 305 308 309 310 312 312 312 314 321 324 323 323 322 321 319 318 317
321 320 321 323 322 322 321 319 321 325 326 325 326 325 323 321 319 317 315 312 310 311 311 308 306 304 303 306 308 309 310 311 311 313 319 324 324 322 321 321 320 317 316
319 320 320 321 321 321 320 320 322 322 323 325 325 323 321 318 316 314 311 309 310 310 310 308 305 304 302 302 304 306 309 310 312 313 314 323 323 322 321 321 320 318 316
317 319 320 320 320 320 319 319 322 322 322 323 323 321 320 317 315 312 309 309 310 310 310 308 306 304 302 302 301 302 304 308 310 312 313 316 322 323 322 320 319 318 316
315 317 318 319 320 319 318 319 321 322 323 322 321 319 318 317 314 311 310 310 310 311 310 308 306 305 302 302 301 302 302 303 306 309 311 312 317 321 322 322 319 318 318
315 316 318 320 319 319 318 318 319 319 321 321 320 319 317 317 315 312 311 312 312 312 311 309 307 306 303 302 300 300 301 303 303 304 308 310 312 315 320 322 323 320 318
315 316 317 318 318 318 318 317 316 315 318 320 321 319 317 317 317 314 314 313 314 313 311 310 309 307 304 303 301 300 299 300 303 305 304 306 308 311 311 318 321 319 319
315 316 316 317 317 316 316 316 314 315 315 317 320 319 320 318 319 317 316 316 315 314 312 311 309 308 306 305 305 302 299 299 299 300 303 305 307 308 309 310 312 311 316
315 314 314 315 315 315 315 315 313 311 312 315 316 319 319 320 321 318 318 317 315 314 312 311 309 308 307 307 303 301 301 301 300 298 298 302 304 306 306 306 306 304 307
314 314 314 313 313 314 314 314 314 311 312 314 315 316 318 319 319 319 317 317 315 313 313 311 309 307 307 307 305 301 297 300 302 300 300 298 301 302 304 305 304 303 300
312 313 311 312 311 311 310 312 311 311 312 312 313 314 314 317 319 319 319 319 317 315 313 311 311 310 308 309 307 306 301 299 301 303 302 301 300 300 300 301 302 303 300
308 310 311 311 310 310 310 308 308 309 307 308 308 310 311 316 319 320 319 320 319 318 316 314 314 310 309 307 308 307 306 304 299 299 303 303 303 302 300 298 300 301 300
308 309 310 311 311 311 310 309 307 306 308 308 309 310 311 313 317 319 320 318 318 319 318 315 311 311 311 308 308 304 303 302 303 301 299 301 303 303 303 301 301 300 300
307 308 310 311 311 312 311 310 308 308 308 309 310 312 313 313 315 318 320 320 319 318 316 316 314 311 310 307 307 304 303 302 301 301 299 299 299 300 300 300 300 300 300
Wind_Speed
7 10 13 23 16 22 16 18 14 21 19 20 22 22 23 24 24 23 24 24 23 24 26 25 24 25 24 24 24 23 21 20 19 19 21 21 21 21 20 21 20 16 24
4 6 13 15 17 20 20 17 18 18 21 22 23 22 22 24 24 25 24 24 25 26 26 26 25 25 25 24 23 22 22 20 20 21 22 22 20 21 21 18 19 20 24
6 6 9 19 21 22 21 18 13 17 21 22 22 22 23 24 24 26 25 25 26 27 28 25 25 24 24 24 22 21 21 20 19 18 19 12 12 21 21 21 21 24 23
4 6 8 13 16 18 25 25 13 11 19 22 22 22 22 22 23 24 24 24 25 26 27 26 22 20 20 20 20 21 21 21 20 17 9 8 12 20 20 21 23 22 24
5 4 3 11 14 14 16 22 23 15 19 22 23 22 22 22 23 24 23 24 24 25 25 24 21 20 19 21 20 20 21 21 20 12 8 7 8 17 19 21 21 23 22
6 5 3 3 9 11 7 16 23 23 17 23 24 23 21 22 23 23 23 24 24 24 24 22 20 24 22 22 21 21 20 19 15 8 6 12 9 20 20 21 21 21 22
6 4 3 19 20 12 22 9 18 23 16 25 24 23 21 21 21 21 22 22 23 23 23 22 24 23 22 22 22 21 19 18 10 7 7 6 11 20 21 21 20 20 20
10 13 13 23 19 15 16 24 22 27 23 23 26 23 20 20 21 21 21 21 21 21 21 21 22 23 22 22 22 20 18 17 10 7 6 7 18 21 20 20 20 20 20
9 13 15 15 14 12 22 31 27 29 24 24 29 24 22 19 20 20 20 20 21 20 20 20 20 21 22 22 21 18 16 16 7 5 7 5 19 20 20 19 20 19 20
8 7 4 7 8 14 9 19 5 29 26 25 26 24 20 19 19 19 18 18 20 21 21 20 19 18 20 20 19 18 16 15 7 6 4 8 18 19 19 19 19 19 19
6 8 8 6 6 14 13 16 8 7 24 22 22 24 17 9 10 11 14 17 19 20 21 19 19 20 22 20 18 17 13 4 6 4 3 15 17 18 18 17 18 18 18
7 6 6 7 9 9 9 17 13 6 6 10 14 13 9 7 6 9 11 14 17 20 17 19 18 19 15 7 7 11 4 5 4 4 3 14 17 17 17 17 16 17 16
8 8 7 8 9 11 9 8 9 7 6 3 10 10 9 6 6 5 5 4 4 10 6 10 8 6 8 6 5 4 5 5 3 3 6 12 15 15 15 16 15 15 14
5 10 9 10 8 9 9 9 8 7 6 6 9 9 8 5 5 4 5 4 4 4 7 7 6 5 7 7 7 6 6 4 3 3 5 11 13 14 13 13 14 13 12
6 9 10 9 9 9 10 9 5 4 5 7 10 10 9 7 6 4 4 4 6 3 6 6 6 5 6 7 6 7 6 6 5 3 2 10 11 12 13 12 12 12 11
6 7 8 11 9 8 7 7 5 5 6 8 8 9 11 9 7 6 4 5 5 5 5 5 5 5 5 5 5 6 6 5 5 5 3 4 11 11 11 11 11 11 10
6 4 9 9 9 10 8 5 3 6 7 7 7 8 9 9 9 8 5 4 4 5 6 5 5 4 5 3 6 5 5 6 5 5 4 3 4 8 10 11 12 11 10
8 7 7 7 10 8 5 4 4 4 5 6 6 7 8 9 7 7 5 5 4 5 4 4 4 4 3 4 3 4 5 5 6 6 5 5 5 4 8 11 12 12 10
7 7 9 8 10 9 7 4 5 4 4 4 5 6 5 8 6 7 4 4 5 4 4 4 2 4 3 3 3 3 4 5 6 5 6 6 6 5 4 8 11 9 10
6 6 8 8 10 8 7 5 3 4 4 3 5 6 6 5 6 5 4 5 4 4 4 3 3 2 3 3 2 3 3 2 3 4 5 3 4 5 5 6 5 6 11
8 8 9 11 10 9 7 8 4 4 3 3 2 4 4 6 6 6 4 4 4 5 6 5 3 4 2 3 3 1 2 4 4 3 3 4 5 5 6 5 4 4 5
10 10 10 10 11 10 8 6 4 4 2 3 2 3 5 6 5 5 5 5 5 4 5 6 5 3 3 4 4 2 2 3 3 5 4 5 6 4 5 7 6 6 5
9 11 9 8 9 8 5 5 3 3 2 1 2 2 2 2 4 6 7 6 6 5 4 5 5 7 4 3 3 4 1 5 1 2 6 5 5 4 4 5 7 8 6
11 9 9 8 6 5 6 5 6 8 7 4 2 1 2 6 6 7 7 8 6 6 7 7 6 4 4 5 1 1 2 3 3 2 2 3 4 5 5 4 5 6 6
11 11 10 10 9 9 7 6 6 5 5 2 3 5 4 4 7 8 8 7 7 5 7 8 6 7 6 4 4 3 1 1 1 1 3 2 2 2 4 6 6 4 4
9 11 11 13 12 12 10 10 11 11 9 7 5 7 7 5 6 8 9 8 7 7 7 8 9 9 8 5 4 4 5 4 4 3 2 3 3 2 3 2 3 3 4
Wind_Direction
174 164 143 131 143 114 97 107 109 113 120 117 120 124 125 124 121 118 114 111 110 110 108 107 105 105 102 99 95 89 85 90 88 87 86 85 81 78 78 73 72 75 76
211 173 143 119 119 108 113 118 119 125 130 130 129 130 128 125 126 123 119 119 118 114 112 109 107 104 103 101 98 93 88 80 80 81 82 81 85 87 87 78 77 79 75
153 164 151 133 134 124 117 101 105 137 134 133 131 132 133 132 130 126 124 124 120 119 116 114 113 110 106 103 101 98 90 83 78 78 89 88 84 84 83 79 76 73 73
297 165 151 145 139 142 133 123 128 158 138 137 132 137 135 133 129 123 123 122 120 118 117 115 112 113 119 116 107 103 97 91 83 70 57 67 83 82 80 81 76 75 72
250 332 128 147 138 136 137 137 139 164 155 143 137 139 137 134 128 124 123 122 120 118 116 113 112 115 109 115 108 103 99 94 87 73 66 63 76 83 78 76 76 73 78
215 242 291 224 139 66 156 157 149 156 178 142 140 139 140 136 130 126 125 124 121 118 114 109 113 118 112 110 107 105 102 97 88 77 67 88 86 90 88 83 81 83 79
165 155 177 103 74 62 42 297 158 150 179 147 140 139 142 136 128 125 122 117 116 116 111 108 115 115 113 111 111 109 105 100 91 79 78 79 92 93 89 88 88 81 81
82 103 100 100 86 63 3 307 175 159 175 150 137 141 139 135 127 122 117 114 112 111 111 108 115 119 117 116 115 113 110 104 89 84 80 89 96 96 94 89 90 91 84
84 110 122 121 108 58 33 38 184 165 163 165 141 138 136 133 126 120 117 116 112 111 109 103 107 122 122 119 116 113 112 109 97 90 92 89 103 102 102 100 97 93 90
97 100 103 120 135 103 53 36 296 163 173 155 134 130 128 128 125 123 120 118 114 113 105 98 101 121 123 120 120 118 113 107 95 95 89 108 109 106 105 105 100 98 96
110 136 141 136 139 131 137 121 106 264 143 133 120 121 122 124 127 121 126 124 116 109 107 102 103 119 127 127 123 118 113 113 108 109 108 115 115 114 111 107 106 101 95
124 121 144 142 132 123 129 137 151 166 206 133 125 122 118 123 127 117 116 111 111 109 100 95 97 103 109 115 114 107 105 110 101 111 105 121 122 121 120 115 110 106 100
135 131 133 136 142 145 132 138 142 179 158 84 123 122 120 120 114 109 104 92 97 94 87 93 92 86 106 117 101 104 117 112 121 112 128 126 126 126 126 122 113 110 107
148 141 144 144 152 143 146 149 166 160 151 144 122 130 130 123 108 122 120 125 116 75 116 100 91 100 98 106 119 122 129 124 121 123 141 133 136 134 131 131 121 120 118
123 147 155 149 156 153 148 161 164 146 142 136 153 155 134 129 139 131 127 132 104 128 105 99 105 123 106 116 129 135 136 135 152 141 136 149 146 146 145 143 142 138 138
121 141 162 160 155 153 153 148 153 152 148 142 155 151 146 146 154 140 145 123 138 124 108 129 133 114 116 122 125 136 144 147 158 154 167 173 165 162 158 163 163 163 162
132 130 150 155 150 158 154 129 131 155 147 151 141 143 144 148 152 152 137 126 186 119 124 108 102 111 121 124 131 145 149 167 165 171 173 187 183 172 173 180 186 186 185
135 139 125 155 145 144 116 109 125 133 153 136 138 140 147 145 143 132 142 171 152 120 134 129 141 131 138 152 144 167 167 177 177 181 181 181 185 187 196 194 198 198 194
154 143 144 135 149 149 148 134 100 78 95 120 116 135 144 148 141 143 164 186 126 128 161 154 154 139 163 174 192 189 200 187 188 179 192 187 192 186 192 214 196 185 181
158 146 137 147 143 137 146 125 96 93 96 114 133 150 154 142 165 137 165 160 157 165 158 169 149 145 160 164 190 213 218 289 280 208 199 183 200 193 198 198 184 185 189
162 157 152 156 152 153 157 158 163 146 119 107 126 127 161 163 172 166 186 156 174 178 185 164 131 170 172 141 113 354 280 244 242 230 206 216 209 210 194 200 198 193 201
161 171 168 162 161 174 166 183 167 142 115 109 129 169 193 173 148 142 176 198 187 166 158 167 162 153 192 175 157 134 227 297 244 221 222 202 209 198 212 214 206 201 204
179 171 165 171 173 163 146 147 89 61 26 242 174 214 197 170 186 200 207 190 191 166 178 179 179 182 176 190 199 154 152 226 82 181 215 211 191 200 229 221 215 214 205
189 177 164 164 172 166 149 153 173 197 205 212 193 214 218 205 212 213 214 209 177 181 197 196 190 189 149 182 84 107 43 125 195 289 279 228 182 208 219 239 229 225 226
180 181 180 174 176 187 171 173 175 185 204 219 224 238 227 216 217 214 202 206 205 188 199 189 179 199 198 167 172 165 141 59 56 152 232 246 273 248 217 194 208 210 212
181 186 185 185 191 194 187 189 187 195 197 207 216 223 233 225 223 222 217 211 204 197 194 200 206 201 200 179 168 167 166 166 179 189 211 219 200 251 242 198 215 224 222